Location: Unspecified
(40.7945°N, 0.0000°E)
Time: 10:26:15
(UTC+00:00)

Vanguard 1 Rocket - Visible Passes

Search period start: 24 January 2021 00:00
Search period end: 03 February 2021 00:00
Orbit: 655 x 4222 km, 34.3° (Epoch: 23 January)

Date Brightness Start Highest point End Pass type
(mag) Time Alt. Az. Time Alt. Az. Time Alt. Az.
29 Jan 11.5 06:32:40 10° SSE 06:35:09 11° SSE 06:37:22 10° SE visible
31 Jan 11.3 06:30:10 10° S 06:38:16 17° SSE 06:44:07 10° ESE visible
01 Feb 11.6 05:21:29 10° SSE 05:25:53 12° SSE 05:29:41 10° SE visible
02 Feb 11.0 06:30:01 10° SSW 06:41:21 24° SSE 06:48:37 10° ESE visible
